This is the latest recevied weather packets stored in our database for station/object OE3PDB-3. If no packets are shown the sender has not sent any weather packets the latest 10 day(s).
| Time | Temp. | Humidity | Pressure | Rain* | Wind** | Luminosity | Snow |
|---|---|---|---|---|---|---|---|
| 1777032631 | 20.56° C | 32% | 1015.2 hPa | 0 mm | - | - | - |
| 1777032031 | 20.56° C | 33% | 1015.4 hPa | 0 mm | - | - | - |
| 1777031431 | 20° C | 34% | 1015.5 hPa | 0 mm | - | - | - |
| 1777030831 | 19.44° C | 35% | 1015.6 hPa | 0 mm | - | - | - |
| 1777030231 | 18.89° C | 35% | 1015.7 hPa | 0 mm | - | - | - |
| 1777029631 | 18.33° C | 36% | 1015.8 hPa | 0 mm | - | - | - |
| 1777029031 | 18.33° C | 36% | 1015.9 hPa | 0 mm | - | - | - |
| 1777028431 | 17.78° C | 36% | 1015.9 hPa | 0 mm | - | - | - |
| 1777027831 | 17.78° C | 36% | 1016.2 hPa | 0 mm | - | - | - |
| 1777027231 | 17.78° C | 36% | 1016.4 hPa | 0 mm | - | - | - |
| 1777026631 | 17.78° C | 36% | 1016.5 hPa | 0 mm | - | - | - |
| 1777026031 | 17.78° C | 36% | 1016.6 hPa | 0 mm | - | - | - |
| 1777025431 | 17.78° C | 36% | 1016.7 hPa | 0 mm | - | - | - |
| 1777024831 | 18.33° C | 36% | 1016.8 hPa | 0 mm | - | - | - |
| 1777024231 | 18.33° C | 36% | 1017.1 hPa | 0 mm | - | - | - |
| 1777023631 | 18.33° C | 35% | 1017.2 hPa | 0 mm | - | - | - |
| 1777023031 | 18.89° C | 35% | 1017.2 hPa | 0 mm | - | - | - |
| 1777022431 | 18.89° C | 35% | 1017.3 hPa | 0 mm | - | - | - |
| 1777021832 | 18.89° C | 35% | 1017.3 hPa | 0 mm | - | - | - |
| 1777021232 | 19.44° C | 34% | 1017.5 hPa | 0 mm | - | - | - |
| 1777020632 | 20° C | 34% | 1017.6 hPa | 0 mm | - | - | - |
| 1777020032 | 20° C | 34% | 1017.6 hPa | 0 mm | - | - | - |
| 1777019432 | 20.56° C | 34% | 1017.6 hPa | 0 mm | - | - | - |
| 1777018832 | 20.56° C | 34% | 1017.7 hPa | 0 mm | - | - | - |
| 1777018232 | 21.67° C | 33% | 1017.7 hPa | 0 mm | - | - | - |
* Rain latest hour (hover to see other rain measurements)
** Current wind speed in m/s (hover to see current wind gust speed)